Teterboro, NJ

11:31 AM EDT on April 23, 2018 (GMT -0400)
Teterboro

Weather History for KTEB - November, 2012

Change the Weather History Date:

Tuesday, November 20, 2012

  Actual Average Record
Temperature  
Mean Temperature 42 °F -  
Max Temperature 51 °F 51 °F 73 °F (1991)
Min Temperature 32 °F 35 °F 23 °F (2000)
Degree Days  
Heating Degree Days 24    
Moisture  
Dew Point 31 °F    
Average Humidity 67    
Maximum Humidity 89    
Minimum Humidity 39    
Precipitation  
Precipitation 0.00 in - - ()
Sea Level Pressure  
Sea Level Pressure 30.17 in    
Wind  
Wind Speed 4 mph (North)    
Max Wind Speed 6 mph    
Max Gust Speed -    
Visibility 10 miles    
Events      
Averages and records for this station are not official NWS values.
T = Trace of Precipitation, MM = Missing Value Source: NWS Daily Summary

Daily Weather History Graph

Daily Weather History Graph

Search for Another Location

Airport or City:

Astronomy

Nov. 20, 2012 Rise Set
Actual Time 6:49 AM EST 4:33 PM EST
Civil Twilight 6:19 AM EST 5:03 PM EST
Nautical Twilight 5:46 AM EST 5:37 PM EST
Astronomical Twilight 5:13 AM EST 6:09 PM EST
Moon 12:21 PM EST (11/20) No Moon Set
Length of Visible Light 10h 43m
Length of Day
9h 44m
Waxing Crescent, 51% of the Moon is Illuminated
Nov 20
Waxing Crescent
Nov 28
Full
Dec 6
Last Quarter
Dec 13
New
Dec 20
First Quarter

Hourly Weather History & Observations

Time (EST) Temp. Windchill Dew Point Humidity Pressure Visibility Wind Dir Wind Speed Gust Speed Precip Events Conditions
12:51 AM 36.0 °F 32.1 °F 32.0 °F 86% 30.24 in 10.0 mi North 4.6 mph - N/A   Clear
1:51 AM 33.1 °F - 30.0 °F 89% 30.22 in 10.0 mi Calm Calm - N/A   Clear
2:51 AM 35.1 °F 32.2 °F 30.9 °F 85% 30.21 in 10.0 mi North 3.5 mph - N/A   Clear
3:51 AM 32.0 °F 27.5 °F 28.9 °F 88% 30.21 in 10.0 mi NNW 4.6 mph - N/A   Clear
4:51 AM 34.0 °F - 30.0 °F 85% 30.21 in 10.0 mi Calm Calm - N/A   Clear
5:51 AM 34.0 °F 29.8 °F 28.9 °F 82% 30.19 in 10.0 mi North 4.6 mph - N/A   Clear
6:51 AM 33.1 °F 30.0 °F 28.9 °F 85% 30.19 in 10.0 mi North 3.5 mph - N/A   Clear
7:51 AM 36.0 °F 32.1 °F 30.9 °F 82% 30.21 in 10.0 mi North 4.6 mph - N/A   Clear
8:51 AM 39.0 °F 34.8 °F 33.1 °F 79% 30.20 in 10.0 mi North 5.8 mph - N/A   Clear
9:51 AM 42.1 °F 38.4 °F 33.1 °F 70% 30.19 in 10.0 mi North 5.8 mph - N/A   Clear
10:51 AM 46.0 °F 43.9 °F 34.0 °F 63% 30.18 in 10.0 mi North 4.6 mph - N/A   Clear
11:51 AM 48.9 °F - 32.0 °F 52% 30.15 in 10.0 mi North 5.8 mph - N/A   Clear
12:51 PM 51.1 °F - 30.9 °F 46% 30.13 in 10.0 mi Calm Calm - N/A   Clear
1:51 PM 51.1 °F - 27.0 °F 39% 30.12 in 10.0 mi North 5.8 mph - N/A   Clear
2:51 PM 51.1 °F - 27.0 °F 39% 30.11 in 10.0 mi NNE 5.8 mph - N/A   Clear
3:51 PM 50.0 °F - 27.0 °F 41% 30.11 in 10.0 mi NNE 4.6 mph - N/A   Clear
4:51 PM 48.9 °F - 28.0 °F 44% 30.12 in 10.0 mi NE 4.6 mph - N/A   Clear
5:51 PM 48.0 °F - 28.9 °F 48% 30.13 in 10.0 mi Calm Calm - N/A   Clear
6:51 PM 46.0 °F - 34.0 °F 63% 30.13 in 10.0 mi Calm Calm - N/A   Clear
7:51 PM 46.0 °F 44.8 °F 35.1 °F 66% 30.14 in 10.0 mi North 3.5 mph - N/A   Clear
8:51 PM 44.1 °F 42.5 °F 35.1 °F 71% 30.14 in 10.0 mi North 3.5 mph - N/A   Clear
9:51 PM 43.0 °F 41.3 °F 34.0 °F 71% 30.15 in 10.0 mi North 3.5 mph - N/A   Clear
10:51 PM 43.0 °F - 34.0 °F 71% 30.15 in 10.0 mi Calm Calm - N/A   Clear
11:51 PM 42.1 °F 38.4 °F 33.1 °F 70% 30.15 in 10.0 mi North 5.8 mph - N/A   Clear